weerbeeld Almere Meer informatie weerbeeld Almere


Onweer radar Meer informatie blitzortung!


Regen radar Meer informatie rain snow radar


Apparatuur in gebruik:

Davis VP2

Meteohub

ALIX 1D

Web-Oke


Het weer levert geen direct gevaar op.    Er zijn geen waarschuwingen afgegeven.

Weather Underground Historische gegevens

Dagelijkse Samenvatting april 19, 2019 Eenheden:  Metrisch    Engels   Beide
« Vorige Dag
Volgende Dag »
Dagelijkse Wekelijkse Maandelijkse Jaarlijkse Aangepaste
  Huidig: Hoog: Laag: Gemiddeld:
Temperatuur: -5.3 °C -17.8 °C -11.7 °C -9.8 °C
Dauwpunt: -13.7 °C -17.8 °C -16.1 °C -15.2 °C
Vochtigheid: 38 % Humidity % 37 % 52 %
Wind snelheid: 20.8 km/h 0 km/h 5.1 km/h 13.5 km/h
Windvlaag: 31.1 km/h 0 km/h - -
Wind:ENE - - ENE
Luchtdruk: 34841.9 hPa 0 hPa 34784.4 hPa -
Neerslag: 0 mm      
Historical Graphs
 
 
Tabel voor april 19, 2019
Tijd Temperatuur Dauwpunt Luchtdruk Wind Wind snelheid Windvlaag Vochtigheid Regenval per uur
-17.8 °C -17.8 °C 0 hPa Calm     Humidity % 0 mm
00:04 -9 °C -16 °C 34784.4 hPa NE 10.3 km/h 25.9 km/h 43 % 0 mm
00:09 -9.1 °C -16 °C 34784.4 hPa ENE 12.9 km/h 25.9 km/h 43 % 0 mm
00:14 -9.1 °C -16.1 °C 34784.4 hPa ENE 10.3 km/h 25.9 km/h 43 % 0 mm
00:19 -9.2 °C -16 °C 34784.4 hPa ENE 10.3 km/h 25.9 km/h 44 % 0 mm
00:24 -9.2 °C -16 °C 34784.4 hPa NE 10.3 km/h 25.9 km/h 44 % 0 mm
00:29 -9.3 °C -16.1 °C 34784.4 hPa ENE 10.3 km/h 23.3 km/h 44 % 0 mm
00:34 -9.3 °C -16.1 °C 34784.4 hPa NE 15.6 km/h 23.3 km/h 44 % 0 mm
00:39 -9.3 °C -15.9 °C 34784.4 hPa ENE 10.3 km/h 23.3 km/h 45 % 0 mm
00:44 -9.3 °C -15.9 °C 34797.9 hPa East 15.6 km/h 25.9 km/h 45 % 0 mm
00:49 -9.4 °C -15.9 °C 34797.9 hPa NE 12.9 km/h 25.9 km/h 45 % 0 mm
00:54 -9.4 °C -15.9 °C 34797.9 hPa ENE 12.9 km/h 23.3 km/h 45 % 0 mm
00:59 -9.4 °C -15.9 °C 34797.9 hPa NNE 12.9 km/h 23.3 km/h 45 % 0 mm
01:04 -9.4 °C -16 °C 34797.9 hPa NE 12.9 km/h 20.8 km/h 45 % 0 mm
01:09 -9.4 °C -16 °C 34797.9 hPa NE 5.1 km/h 23.3 km/h 45 % 0 mm
01:14 -9.5 °C -15.9 °C 34797.9 hPa ENE 18.2 km/h 23.3 km/h 46 % 0 mm
01:19 -9.6 °C -15.9 °C 34797.9 hPa ENE 10.3 km/h 23.3 km/h 46 % 0 mm
01:24 -9.6 °C -16 °C 34797.9 hPa NE 12.9 km/h 23.3 km/h 46 % 0 mm
01:29 -9.7 °C -15.9 °C 34797.9 hPa NE 15.6 km/h 23.3 km/h 47 % 0 mm
01:34 -9.8 °C -15.8 °C 34797.9 hPa NE 7.7 km/h 23.3 km/h 48 % 0 mm
01:39 -9.9 °C -15.9 °C 34797.9 hPa ENE 10.3 km/h 23.3 km/h 48 % 0 mm
01:44 -9.9 °C -15.8 °C 34797.9 hPa North 12.9 km/h 25.9 km/h 49 % 0 mm
01:49 -10.1 °C -15.8 °C 34797.9 hPa NE 12.9 km/h 25.9 km/h 50 % 0 mm
01:54 -10.1 °C -15.8 °C 34797.9 hPa NE 15.6 km/h 25.9 km/h 50 % 0 mm
01:59 -10.1 °C -15.8 °C 34797.9 hPa NE 23.3 km/h 28.5 km/h 50 % 0 mm
02:04 -10.2 °C -15.8 °C 34797.9 hPa NE 15.6 km/h 31.1 km/h 50 % 0 mm
02:09 -10.2 °C -15.8 °C 34797.9 hPa ENE 18.2 km/h 31.1 km/h 50 % 0 mm
02:14 -10.2 °C -15.7 °C 34797.9 hPa NNE 15.6 km/h 31.1 km/h 51 % 0 mm
02:19 -10.2 °C -15.7 °C 34797.9 hPa NE 10.3 km/h 31.1 km/h 51 % 0 mm
02:24 -10.3 °C -15.8 °C 34797.9 hPa NE 12.9 km/h 31.1 km/h 51 % 0 mm
02:29 -10.3 °C -15.8 °C 34797.9 hPa NE 20.8 km/h 31.1 km/h 51 % 0 mm
02:34 -10.4 °C -15.8 °C 34797.9 hPa ENE 10.3 km/h 31.1 km/h 52 % 0 mm
02:39 -10.4 °C -15.8 °C 34797.9 hPa ENE 18.2 km/h 31.1 km/h 52 % 0 mm
02:44 -10.4 °C -15.8 °C 34797.9 hPa NE 18.2 km/h 25.9 km/h 52 % 0 mm
02:49 -10.4 °C -15.8 °C 34797.9 hPa ENE 12.9 km/h 25.9 km/h 52 % 0 mm
02:54 -10.4 °C -15.7 °C 34797.9 hPa WSW 5.1 km/h 25.9 km/h 53 % 0 mm
02:59 -10.5 °C -15.7 °C 34797.9 hPa NE 10.3 km/h 25.9 km/h 53 % 0 mm
03:04 -10.5 °C -15.7 °C 34797.9 hPa ENE 23.3 km/h 28.5 km/h 53 % 0 mm
03:09 -10.6 °C -15.8 °C 34797.9 hPa NE 7.7 km/h 28.5 km/h 53 % 0 mm
03:14 -10.6 °C -15.7 °C 34797.9 hPa NE 10.3 km/h 28.5 km/h 54 % 0 mm
03:19 -10.6 °C -15.7 °C 34797.9 hPa NE 7.7 km/h 31.1 km/h 54 % 0 mm
03:24 -10.7 °C -15.6 °C 34797.9 hPa ENE 23.3 km/h 31.1 km/h 55 % 0 mm
03:29 -10.7 °C -15.6 °C 34797.9 hPa ENE 10.3 km/h 31.1 km/h 55 % 0 mm
03:34 -10.7 °C -15.6 °C 34797.9 hPa NNE 7.7 km/h 23.3 km/h 55 % 0 mm
03:39 -10.7 °C -15.4 °C 34797.9 hPa ENE 18.2 km/h 25.9 km/h 56 % 0 mm
03:44 -10.7 °C -15.4 °C 34797.9 hPa ENE 7.7 km/h 28.5 km/h 56 % 0 mm
03:49 -10.7 °C -15.4 °C 34797.9 hPa ENE 31.1 km/h 28.5 km/h 56 % 0 mm
03:54 -10.7 °C -15.4 °C 34797.9 hPa East 18.2 km/h 33.6 km/h 56 % 0 mm
03:59 -10.7 °C -15.3 °C 34797.9 hPa East 15.6 km/h 33.6 km/h 57 % 0 mm
04:04 -10.7 °C -15.3 °C 34797.9 hPa NE 12.9 km/h 33.6 km/h 57 % 0 mm
04:09 -10.7 °C -15.3 °C 34797.9 hPa ENE 18.2 km/h 31.1 km/h 57 % 0 mm
04:14 -10.7 °C -15.2 °C 34797.9 hPa NE 18.2 km/h 38.8 km/h 58 % 0 mm
04:19 -10.8 °C -15.2 °C 34797.9 hPa ENE 18.2 km/h 38.8 km/h 58 % 0 mm
04:24 -10.8 °C -15.2 °C 34797.9 hPa ENE 20.8 km/h 38.8 km/h 58 % 0 mm
04:29 -10.8 °C -15.2 °C 34797.9 hPa NE 15.6 km/h 31.1 km/h 58 % 0 mm
04:34 -10.8 °C -15.2 °C 34797.9 hPa ENE 18.2 km/h 31.1 km/h 59 % 0 mm
04:39 -10.9 °C -15.2 °C 34808.1 hPa ENE 7.7 km/h 31.1 km/h 59 % 0 mm
04:44 -10.9 °C -15.2 °C 34808.1 hPa East 7.7 km/h 31.1 km/h 59 % 0 mm
04:49 -10.9 °C -15.2 °C 34808.1 hPa ENE 7.7 km/h 31.1 km/h 59 % 0 mm
04:54 -10.9 °C -15.2 °C 34808.1 hPa East 20.8 km/h 33.6 km/h 59 % 0 mm
04:59 -10.9 °C -15.2 °C 34808.1 hPa NE 12.9 km/h 33.6 km/h 59 % 0 mm
05:04 -10.9 °C -15.2 °C 34808.1 hPa ENE 18.2 km/h 33.6 km/h 59 % 0 mm
05:09 -10.9 °C -15.3 °C 34808.1 hPa NE 12.9 km/h 33.6 km/h 59 % 0 mm
05:14 -10.9 °C -15.3 °C 34808.1 hPa ENE 18.2 km/h 31.1 km/h 59 % 0 mm
05:19 -11 °C -15.3 °C 34808.1 hPa ENE 23.3 km/h 33.6 km/h 59 % 0 mm
05:24 -11.1 °C -15.2 °C 34808.1 hPa NE 15.6 km/h 33.6 km/h 60 % 0 mm
05:29 -11.1 °C -15.2 °C 34808.1 hPa NE 12.9 km/h 33.6 km/h 60 % 0 mm
05:34 -11.1 °C -15.2 °C 34808.1 hPa ENE 18.2 km/h 33.6 km/h 60 % 0 mm
05:39 -11.1 °C -15.3 °C 34808.1 hPa ENE 12.9 km/h 33.6 km/h 60 % 0 mm
05:44 -11.1 °C -15.3 °C 34808.1 hPa NE 7.7 km/h 28.5 km/h 60 % 0 mm
05:49 -11.2 °C -15.3 °C 34808.1 hPa ENE 7.7 km/h 28.5 km/h 60 % 0 mm
05:54 -11.2 °C -15.4 °C 34808.1 hPa NE 18.2 km/h 28.5 km/h 60 % 0 mm
05:59 -11.2 °C -15.4 °C 34808.1 hPa ENE 7.7 km/h 28.5 km/h 60 % 0 mm
06:04 -11.3 °C -15.3 °C 34808.1 hPa East 12.9 km/h 23.3 km/h 61 % 0 mm
06:09 -11.3 °C -15.4 °C 34808.1 hPa ENE 18.2 km/h 23.3 km/h 61 % 0 mm
06:14 -11.3 °C -15.4 °C 34808.1 hPa ENE 10.3 km/h 23.3 km/h 61 % 0 mm
06:19 -11.4 °C -15.4 °C 34818.2 hPa ENE 7.7 km/h 23.3 km/h 61 % 0 mm
06:24 -11.4 °C -15.5 °C 34808.1 hPa East 5.1 km/h 25.9 km/h 61 % 0 mm
06:29 -11.5 °C -15.5 °C 34818.2 hPa ENE 10.3 km/h 25.9 km/h 61 % 0 mm
06:34 -11.5 °C -15.5 °C 34818.2 hPa ENE 7.7 km/h 25.9 km/h 61 % 0 mm
06:39 -11.6 °C -15.4 °C 34818.2 hPa ENE 10.3 km/h 25.9 km/h 62 % 0 mm
06:44 -11.6 °C -15.5 °C 34818.2 hPa ENE 18.2 km/h 25.9 km/h 62 % 0 mm
06:49 -11.6 °C -15.5 °C 34818.2 hPa ENE 7.7 km/h 25.9 km/h 62 % 0 mm
06:54 -11.7 °C -15.6 °C 34818.2 hPa East 18.2 km/h 23.3 km/h 62 % 0 mm
06:59 -11.7 °C -15.6 °C 34818.2 hPa ENE 10.3 km/h 20.8 km/h 62 % 0 mm
07:04 -11.7 °C -15.6 °C 34818.2 hPa ENE 5.1 km/h 20.8 km/h 62 % 0 mm
07:09 -11.7 °C -15.6 °C 34831.8 hPa ENE 7.7 km/h 20.8 km/h 62 % 0 mm
07:14 -11.6 °C -15.5 °C 34831.8 hPa ENE 10.3 km/h 20.8 km/h 62 % 0 mm
07:19 -11.6 °C -15.5 °C 34831.8 hPa East 12.9 km/h 20.8 km/h 62 % 0 mm
07:24 -11.6 °C -15.5 °C 34831.8 hPa ENE 10.3 km/h 25.9 km/h 62 % 0 mm
07:29 -11.6 °C -15.5 °C 34831.8 hPa ENE 12.9 km/h 25.9 km/h 62 % 0 mm
07:34 -11.6 °C -15.4 °C 34831.8 hPa East 7.7 km/h 20.8 km/h 62 % 0 mm
07:39 -11.6 °C -15.4 °C 34831.8 hPa East 12.9 km/h 20.8 km/h 62 % 0 mm
07:44 -11.5 °C -15.4 °C 34831.8 hPa SE 12.9 km/h 20.8 km/h 62 % 0 mm
07:49 -11.4 °C -15.5 °C 34831.8 hPa ENE 7.7 km/h 23.3 km/h 61 % 0 mm
07:54 -11.4 °C -15.4 °C 34831.8 hPa ENE 20.8 km/h 23.3 km/h 61 % 0 mm
07:59 -11.3 °C -15.3 °C 34831.8 hPa ENE 7.7 km/h 23.3 km/h 61 % 0 mm
08:04 -11.2 °C -15.3 °C 34831.8 hPa East 18.2 km/h 23.3 km/h 60 % 0 mm
08:09 -11.1 °C -15.3 °C 34831.8 hPa NE 10.3 km/h 25.9 km/h 60 % 0 mm
08:14 -11 °C -15.2 °C 34831.8 hPa NE 18.2 km/h 31.1 km/h 60 % 0 mm
08:19 -10.9 °C -15.2 °C 34831.8 hPa East 15.6 km/h 31.1 km/h 59 % 0 mm
08:24 -10.8 °C -15.1 °C 34831.8 hPa ENE 7.7 km/h 31.1 km/h 59 % 0 mm
08:29 -10.7 °C -15.2 °C 34841.9 hPa ENE 20.8 km/h 28.5 km/h 58 % 0 mm
08:34 -10.6 °C -15.1 °C 34831.8 hPa ENE 12.9 km/h 31.1 km/h 58 % 0 mm
08:39 -10.5 °C -15.1 °C 34841.9 hPa ENE 25.9 km/h 31.1 km/h 57 % 0 mm
08:44 -10.4 °C -15 °C 34841.9 hPa East 5.1 km/h 31.1 km/h 57 % 0 mm
08:49 -10.3 °C -15.1 °C 34841.9 hPa SE 10.3 km/h 31.1 km/h 56 % 0 mm
08:54 -10.2 °C -15 °C 34841.9 hPa ESE 20.8 km/h 31.1 km/h 56 % 0 mm
08:59 -10.1 °C -14.9 °C 34841.9 hPa ENE 7.7 km/h 31.1 km/h 56 % 0 mm
09:04 -10 °C -14.9 °C 34841.9 hPa ENE 7.7 km/h 31.1 km/h 55 % 0 mm
09:09 -9.8 °C -14.8 °C 34841.9 hPa NE 10.3 km/h 25.9 km/h 55 % 0 mm
09:14 -9.6 °C -14.7 °C 34841.9 hPa NE 10.3 km/h 25.9 km/h 54 % 0 mm
09:19 -9.6 °C -15 °C 34852.1 hPa ENE 18.2 km/h 25.9 km/h 52 % 0 mm
09:24 -9.5 °C -14.9 °C 34852.1 hPa ENE 23.3 km/h 28.5 km/h 52 % 0 mm
09:29 -9.3 °C -14.8 °C 34852.1 hPa ENE 18.2 km/h 31.1 km/h 52 % 0 mm
09:34 -9.3 °C -14.9 °C 34852.1 hPa ESE 18.2 km/h 36.2 km/h 51 % 0 mm
09:39 -9.2 °C -15 °C 34852.1 hPa SSE 12.9 km/h 36.2 km/h 50 % 0 mm
09:44 -9.1 °C -14.8 °C 34852.1 hPa SE 10.3 km/h 36.2 km/h 50 % 0 mm
09:49 -8.8 °C -14.6 °C 34852.1 hPa ESE 7.7 km/h 28.5 km/h 50 % 0 mm
09:54 -8.7 °C -14.7 °C 34852.1 hPa ENE 10.3 km/h 28.5 km/h 49 % 0 mm
09:59 -8.7 °C -14.7 °C 34852.1 hPa ENE 18.2 km/h 25.9 km/h 49 % 0 mm
10:04 -8.6 °C -14.7 °C 34852.1 hPa ENE 12.9 km/h 28.5 km/h 48 % 0 mm
10:09 -8.5 °C -14.7 °C 34852.1 hPa NE 10.3 km/h 31.1 km/h 48 % 0 mm
10:14 -8.4 °C -14.6 °C 34852.1 hPa East 15.6 km/h 31.1 km/h 48 % 0 mm
10:19 -8.2 °C -14.6 °C 34852.1 hPa ENE 20.8 km/h 31.1 km/h 47 % 0 mm
10:24 -8.1 °C -14.6 °C 34852.1 hPa ENE 12.9 km/h 28.5 km/h 46 % 0 mm
10:29 -7.9 °C -14.5 °C 34852.1 hPa ENE 25.9 km/h 28.5 km/h 46 % 0 mm
10:34 -7.9 °C -14.6 °C 34852.1 hPa East 28.5 km/h 33.6 km/h 45 % 0 mm
10:39 -7.8 °C -14.6 °C 34852.1 hPa ENE 12.9 km/h 33.6 km/h 45 % 0 mm
10:44 -7.8 °C -14.7 °C 34852.1 hPa NE 15.6 km/h 33.6 km/h 44 % 0 mm
10:49 -7.6 °C -14.6 °C 34852.1 hPa ENE 18.2 km/h 36.2 km/h 44 % 0 mm
10:54 -7.5 °C -14.4 °C 34852.1 hPa East 15.6 km/h 36.2 km/h 44 % 0 mm
10:59 -7.6 °C -14.3 °C 34852.1 hPa ENE 12.9 km/h 36.2 km/h 45 % 0 mm
11:04 -7.3 °C -14.1 °C 34852.1 hPa East 7.7 km/h 28.5 km/h 45 % 0 mm
11:09 -7.2 °C -14.3 °C 34852.1 hPa ENE 7.7 km/h 28.5 km/h 43 % 0 mm
11:14 -7.1 °C -14.2 °C 34852.1 hPa East 18.2 km/h 28.5 km/h 43 % 0 mm
11:19 -6.9 °C -14.3 °C 34852.1 hPa East 18.2 km/h 28.5 km/h 42 % 0 mm
11:24 -6.8 °C -14.2 °C 34852.1 hPa ENE 20.8 km/h 36.2 km/h 42 % 0 mm
11:29 -6.7 °C -14.1 °C 34852.1 hPa NE 10.3 km/h 36.2 km/h 42 % 0 mm
11:34 -6.6 °C -14.2 °C 34852.1 hPa ENE 18.2 km/h 36.2 km/h 41 % 0 mm
11:39 -6.5 °C -14.3 °C 34852.1 hPa East 7.7 km/h 31.1 km/h 40 % 0 mm
11:44 -6.4 °C -14.3 °C 34852.1 hPa East 12.9 km/h 28.5 km/h 40 % 0 mm
11:49 -6.3 °C -14.6 °C 34841.9 hPa NE 18.2 km/h 28.5 km/h 38 % 0 mm
11:54 -6.3 °C -14.3 °C 34841.9 hPa East 5.1 km/h 36.2 km/h 39 % 0 mm
11:59 -6.2 °C -14 °C 34841.9 hPa NE 18.2 km/h 36.2 km/h 40 % 0 mm
12:04 -5.9 °C -13.9 °C 34841.9 hPa NE 15.6 km/h 36.2 km/h 39 % 0 mm
12:09 -5.7 °C -13.8 °C 34841.9 hPa NE 15.6 km/h 36.2 km/h 39 % 0 mm
12:14 -5.7 °C -14.2 °C 34841.9 hPa NE 15.6 km/h 33.6 km/h 37 % 0 mm
12:19 -5.6 °C -13.7 °C 34841.9 hPa NE 10.3 km/h 38.8 km/h 39 % 0 mm
12:24 -5.5 °C -13.8 °C 34841.9 hPa NE 7.7 km/h 38.8 km/h 38 % 0 mm
12:29 -5.4 °C -13.7 °C 34831.8 hPa NE 5.1 km/h 38.8 km/h 38 % 0 mm
12:34 -5.3 °C -13.7 °C 34841.9 hPa ENE 20.8 km/h 31.1 km/h 38 % 0 mm
Weerstation Almere Buiten
Gegevens verzameld door Weather Underground - 4 mb

Script ontwikkeld door  Jim McMurry - jmcmurry@mwt.net Aangepast voor de template door  Wim van der Kuil - Leuven-Template.eu

U vindt ons ook hier:

Het Weer Aktueel

UK Metoffice

European Weather Network

Weather Underground

AWEKAS